Change the Weather History Date:

Sunday, October 28, 2012

  Actual Average Record
Temperature  
Mean Temperature 56 °F -  
Max Temperature 58 °F 65 °F 83 °F (1984)
Min Temperature 54 °F 45 °F 28 °F (1976)
Degree Days  
Heating Degree Days 8    
Growing Degree Days 6 (Base 50)    
Moisture  
Dew Point 53 °F    
Average Humidity 91    
Maximum Humidity 100    
Minimum Humidity 75    
Precipitation  
Precipitation 1.13 in - - ()
Sea Level Pressure  
Sea Level Pressure 29.65 in    
Wind  
Wind Speed 15 mph (North)    
Max Wind Speed 22 mph    
Max Gust Speed 32 mph    
Visibility 8 miles    
Events Rain    
Averages and records for this station are not official NWS values.
T = Trace of Precipitation, MM = Missing Value Source: NWS Daily Summary

Daily Weather History Graph

Daily Weather History Graph

Search for Another Location

Airport or City:

Trip Planner

Search our weather history database for the weather conditions in past years. The results will help you decide how hot, cold, wet, or windy it might be!

Date:

Astronomy

Oct. 28, 2012 Rise Set
Actual Time 7:25 AM EDT 6:05 PM EDT
Civil Twilight 6:58 AM EDT 6:32 PM EDT
Nautical Twilight 6:26 AM EDT 7:03 PM EDT
Astronomical Twilight 5:55 AM EDT 7:35 PM EDT
Moon 5:21 PM EDT (10/28) 6:16 AM EDT (10/28)
Length of Visible Light 11h 34m
Length of Day
10h 39m
Waxing Gibbous, 99% of the Moon is Illuminated
Oct 28
Waxing Gibbous
Oct 29
Full
Nov 6
Last Quarter
Nov 13
New
Nov 20
First Quarter

Hourly Weather History & Observations

Time (EDT) Temp. Dew Point Humidity Pressure Visibility Wind Dir Wind Speed Gust Speed Precip Events Conditions
12:55 AM 58.3 °F 50.4 °F 75% 29.84 in 10.0 mi NNE 12.7 mph - N/A   Clear
1:55 AM 57.9 °F 50.5 °F 76% 29.82 in 10.0 mi NNE 11.5 mph - N/A   Partly Cloudy
2:24 AM 57.2 °F 50.0 °F 77% 29.83 in 10.0 mi NNE 10.4 mph - N/A Rain Light Rain
2:55 AM 56.3 °F 51.8 °F 85% 29.82 in 8.0 mi NNE 10.4 mph - 0.00 in Rain Light Rain
3:03 AM 55.4 °F 51.8 °F 88% 29.82 in 10.0 mi NNE 10.4 mph - N/A   Clear
3:06 AM 55.4 °F 51.8 °F 88% 29.82 in 10.0 mi NNE 10.4 mph - N/A Rain Light Rain
3:55 AM 55.8 °F 52.3 °F 88% 29.80 in 9.0 mi North 11.5 mph - 0.02 in Rain Light Rain
4:55 AM 55.6 °F 52.5 °F 89% 29.79 in 9.0 mi North 10.4 mph - 0.01 in Rain Light Rain
5:53 AM 55.4 °F 51.8 °F 88% 29.78 in 10.0 mi North 10.4 mph - N/A   Clear
5:55 AM 55.0 °F 51.6 °F 88% 29.78 in 10.0 mi North 12.7 mph - 0.01 in   Clear
5:56 AM 55.4 °F 51.8 °F 88% 29.78 in 10.0 mi North 11.5 mph - N/A Rain Light Rain
6:11 AM 55.4 °F 51.8 °F 88% 29.76 in 10.0 mi North 12.7 mph - N/A   Clear
6:55 AM 54.9 °F 51.1 °F 87% 29.77 in 10.0 mi North 11.5 mph - 0.00 in   Partly Cloudy
7:55 AM 55.9 °F 49.6 °F 79% 29.78 in 10.0 mi NNE 15.0 mph - N/A   Scattered Clouds
8:17 AM 55.4 °F 50.0 °F 82% 29.78 in 10.0 mi NNE 16.1 mph - N/A   Mostly Cloudy
8:55 AM 56.5 °F 49.6 °F 78% 29.78 in 10.0 mi NNE 15.0 mph - N/A   Overcast
9:55 AM 56.8 °F 50.4 °F 79% 29.76 in 10.0 mi North 15.0 mph - N/A   Overcast
10:55 AM 57.9 °F 51.4 °F 79% 29.75 in 10.0 mi NNE 13.8 mph - N/A   Overcast
11:55 AM 58.6 °F 52.3 °F 80% 29.72 in 10.0 mi NNE 21.9 mph - N/A   Overcast
12:00 PM 59.0 °F 51.8 °F 77% 29.72 in 10.0 mi NNE 19.6 mph 23.0 mph N/A   Light Drizzle
12:31 PM 59.0 °F 53.6 °F 82% 29.71 in 10.0 mi NNE 17.3 mph - N/A   Overcast
12:55 PM 58.3 °F 52.7 °F 82% 29.70 in 10.0 mi NNE 17.3 mph 23.0 mph 0.00 in   Overcast
1:07 PM 59.0 °F 53.6 °F 82% 29.70 in 10.0 mi NNE 19.6 mph - N/A Rain Light Rain
1:55 PM 56.7 °F 54.1 °F 91% 29.68 in 5.0 mi NNE 15.0 mph - 0.03 in Rain Light Rain
2:15 PM 55.4 °F 53.6 °F 94% 29.67 in 6.0 mi North 17.3 mph - N/A Rain Light Rain
2:25 PM 55.4 °F 53.6 °F 94% 29.67 in 2.5 mi North 16.1 mph - N/A Rain Heavy Rain
2:34 PM 55.4 °F 53.6 °F 94% 29.66 in 3.0 mi North 13.8 mph - N/A Rain Heavy Rain
2:43 PM 55.4 °F 53.6 °F 94% 29.66 in 4.0 mi North 15.0 mph - N/A Rain Rain
2:46 PM 55.4 °F 55.4 °F 100% 29.66 in 5.0 mi North 13.8 mph - N/A Rain Rain
2:54 PM 55.4 °F 53.6 °F 94% 29.65 in 5.0 mi North 13.8 mph - N/A Rain Rain
2:55 PM 55.8 °F 54.3 °F 95% 29.65 in 5.0 mi North 13.8 mph - 0.16 in Rain Rain
3:18 PM 55.4 °F 53.6 °F 94% 29.64 in 5.0 mi North 17.3 mph - N/A Rain Light Rain
3:23 PM 55.4 °F 53.6 °F 94% 29.64 in 6.0 mi North 16.1 mph - N/A Rain Light Rain
3:25 PM 55.4 °F 53.6 °F 94% 29.64 in 6.0 mi North 18.4 mph - N/A Rain Light Rain
3:27 PM 55.4 °F 53.6 °F 94% 29.64 in 7.0 mi North 20.7 mph - N/A Rain Light Rain
3:28 PM 55.4 °F 53.6 °F 94% 29.64 in 7.0 mi North 18.4 mph - N/A Rain Light Rain
3:29 PM 55.4 °F 53.6 °F 94% 29.64 in 8.0 mi North 18.4 mph - N/A Rain Light Rain
3:34 PM 55.4 °F 53.6 °F 94% 29.65 in 10.0 mi North 15.0 mph - N/A   Mostly Cloudy
3:36 PM 55.4 °F 53.6 °F 94% 29.65 in 10.0 mi North 17.3 mph - N/A Rain Light Rain
3:37 PM 55.4 °F 53.6 °F 94% 29.65 in 10.0 mi North 16.1 mph - N/A Rain Light Rain
3:39 PM 55.4 °F 53.6 °F 94% 29.64 in 10.0 mi North 15.0 mph - N/A Rain Light Rain
3:44 PM 55.4 °F 53.6 °F 94% 29.64 in 10.0 mi North 17.3 mph 25.3 mph N/A Rain Light Rain
3:50 PM 55.4 °F 53.6 °F 94% 29.64 in 10.0 mi North 17.3 mph 25.3 mph N/A Rain Light Rain
3:55 PM 55.6 °F 54.1 °F 95% 29.64 in 10.0 mi North 15.0 mph 23.0 mph 0.04 in Rain Light Rain
3:56 PM 55.4 °F 53.6 °F 94% 29.64 in 10.0 mi North 16.1 mph 23.0 mph N/A   Mostly Cloudy
3:58 PM 55.4 °F 53.6 °F 94% 29.64 in 10.0 mi North 18.4 mph - N/A Rain Light Rain
4:05 PM 55.4 °F 53.6 °F 94% 29.64 in 9.0 mi North 17.3 mph - N/A Rain Light Rain
4:29 PM 55.4 °F 53.6 °F 94% 29.63 in 6.0 mi North 19.6 mph - N/A Rain Light Rain
4:55 PM 55.6 °F 54.1 °F 95% 29.62 in 4.0 mi North 18.4 mph - 0.06 in Rain Rain
5:01 PM 55.4 °F 53.6 °F 94% 29.63 in 4.0 mi North 16.1 mph 25.3 mph N/A Rain Rain
5:07 PM 55.4 °F 53.6 °F 94% 29.62 in 5.0 mi North 18.4 mph 25.3 mph N/A Rain Rain
5:13 PM 55.4 °F 53.6 °F 94% 29.62 in 5.0 mi North 19.6 mph 32.2 mph N/A Rain Light Rain
5:37 PM 55.4 °F 53.6 °F 94% 29.62 in 6.0 mi North 20.7 mph 25.3 mph N/A Rain Light Rain
5:38 PM 55.4 °F 53.6 °F 94% 29.61 in 6.0 mi North 21.9 mph 27.6 mph N/A Rain Rain
5:55 PM 55.4 °F 54.3 °F 96% 29.61 in 8.0 mi North 19.6 mph 27.6 mph 0.07 in Rain Light Rain
6:06 PM 55.4 °F 53.6 °F 94% 29.61 in 10.0 mi North 21.9 mph 29.9 mph N/A   Overcast
6:07 PM 55.4 °F 53.6 °F 94% 29.61 in 10.0 mi North 21.9 mph 29.9 mph N/A Rain Light Rain
6:10 PM 55.4 °F 53.6 °F 94% 29.61 in 10.0 mi North 18.4 mph 29.9 mph N/A Rain Light Rain
6:48 PM 55.4 °F 53.6 °F 94% 29.61 in 6.0 mi North 20.7 mph 32.2 mph N/A Rain Rain
6:55 PM 55.6 °F 53.8 °F 94% 29.61 in 5.0 mi North 18.4 mph 32.2 mph 0.05 in Rain Heavy Rain
6:58 PM 55.4 °F 53.6 °F 94% 29.61 in 5.0 mi North 20.7 mph 25.3 mph N/A Rain Heavy Rain
7:14 PM 55.4 °F 53.6 °F 94% 29.61 in 4.0 mi North 21.9 mph 26.5 mph N/A Rain Heavy Rain
7:15 PM 55.4 °F 53.6 °F 94% 29.61 in 4.0 mi North 19.6 mph 26.5 mph N/A Rain Heavy Rain
7:55 PM 55.2 °F 54.1 °F 96% 29.58 in 7.0 mi North 21.9 mph 32.2 mph 0.17 in Rain Rain
8:02 PM 55.4 °F 53.6 °F 94% 29.58 in 9.0 mi North 21.9 mph 27.6 mph N/A Rain Light Rain
8:09 PM 55.4 °F 53.6 °F 94% 29.58 in 9.0 mi North 21.9 mph 29.9 mph N/A Rain Rain
8:12 PM 55.4 °F 53.6 °F 94% 29.58 in 8.0 mi North 20.7 mph 29.9 mph N/A Rain Rain
8:55 PM 55.2 °F 54.1 °F 96% 29.57 in 6.0 mi North 21.9 mph 28.8 mph 0.08 in Rain Rain
9:33 PM 55.4 °F 53.6 °F 94% 29.56 in 9.0 mi North 20.7 mph 27.6 mph N/A Rain Light Rain
9:49 PM 55.4 °F 53.6 °F 94% 29.57 in 9.0 mi North 17.3 mph - N/A Rain Light Rain
9:55 PM 55.2 °F 54.3 °F 97% 29.57 in 8.0 mi NNE 21.9 mph - 0.10 in Rain Rain
10:05 PM 55.4 °F 53.6 °F 94% 29.57 in 4.0 mi NNE 20.7 mph - N/A Rain Rain
10:15 PM 55.4 °F 53.6 °F 94% 29.56 in 4.0 mi North 20.7 mph 32.2 mph N/A Rain Rain
10:32 PM 55.4 °F 53.6 °F 94% 29.56 in 5.0 mi North 19.6 mph 32.2 mph N/A Rain Rain
10:45 PM 55.4 °F 53.6 °F 94% 29.55 in 6.0 mi North 20.7 mph 26.5 mph N/A Rain Rain
10:54 PM 55.4 °F 53.6 °F 94% 29.55 in 6.0 mi North 20.7 mph 27.6 mph N/A Rain Rain
10:55 PM 55.2 °F 54.1 °F 96% 29.55 in 6.0 mi North 18.4 mph 27.6 mph 0.15 in Rain Rain
10:58 PM 55.4 °F 53.6 °F 94% 29.55 in 5.0 mi North 16.1 mph 27.6 mph N/A Rain Heavy Rain
11:02 PM 55.4 °F 53.6 °F 94% 29.55 in 5.0 mi North 19.6 mph 27.6 mph N/A Rain Heavy Rain
11:04 PM 55.4 °F 53.6 °F 94% 29.55 in 4.0 mi North 20.7 mph 27.6 mph N/A Rain Heavy Rain
11:20 PM 55.4 °F 53.6 °F 94% 29.54 in 4.0 mi North 18.4 mph 27.6 mph N/A Rain Heavy Rain
11:43 PM 55.4 °F 53.6 °F 94% 29.52 in 6.0 mi North 19.6 mph 26.5 mph N/A Rain Rain
11:55 PM 54.7 °F 53.6 °F 96% 29.52 in 7.0 mi North 17.3 mph 28.8 mph 0.18 in Rain Rain
11:59 PM 55.4 °F 53.6 °F 94% 29.52 in 6.0 mi North 18.4 mph 28.8 mph N/A Rain Rain